Temperature
18 18 17 17 17 17 16 16 16 16 16 16 15 15 15 15 15 15 15 15 15 15 15 15 15 15 15 15 15 14 15 15 15 15 15 14 14 14 14 14 14 14 14
18 18 17 17 17 17 17 16 16 16 16 16 15 15 15 15 15 15 15 15 15 15 15 15 15 15 15 15 15 15 15 15 15 15 15 15 15 14 14 14 14 14 14
19 18 18 17 17 17 17 17 16 16 16 16 15 15 15 15 15 15 15 15 15 15 15 15 15 15 15 15 15 14 14 14 14 15 15 16 16 14 14 14 14 14 14
19 18 18 18 17 17 17 17 16 16 16 16 16 15 15 15 15 15 15 15 15 15 15 15 15 15 15 15 14 14 14 14 14 14 15 15 15 15 15 14 13 13 13
19 18 18 18 17 17 17 17 16 16 16 16 16 15 15 15 15 15 15 15 15 15 15 15 15 14 14 14 14 14 14 14 14 14 14 14 14 15 15 14 13 13 13
19 18 18 18 17 17 17 17 17 16 16 16 16 16 15 15 15 15 15 15 15 15 15 15 15 14 14 14 14 14 14 14 14 14 14 14 14 14 14 14 14 13 13
19 19 18 18 17 17 17 17 17 17 16 16 16 16 16 15 15 15 15 15 15 15 15 15 14 14 14 14 14 14 14 14 14 14 14 14 14 14 14 14 14 13 13
19 19 18 18 17 17 17 17 17 17 16 16 16 16 16 16 15 15 15 15 15 15 15 15 15 15 14 14 14 14 14 14 14 14 14 14 14 14 14 14 14 14 14
19 19 18 18 18 17 18 17 17 17 17 16 16 16 16 16 15 15 15 15 15 15 15 15 15 14 14 14 14 14 14 14 14 14 14 14 14 14 14 14 14 14 14
19 18 18 18 18 18 18 17 17 17 17 16 16 16 16 16 16 15 15 15 15 15 15 14 14 14 14 14 14 14 14 14 14 14 14 14 14 14 14 14 14 13 13
19 18 18 18 18 18 18 18 17 17 17 16 16 16 16 16 16 16 15 15 15 15 15 14 14 14 14 14 14 14 14 14 14 14 14 14 14 13 13 13 13 13 13
19 18 18 18 18 18 18 17 17 17 17 17 16 16 16 16 16 16 15 15 15 15 15 14 14 14 14 14 14 14 14 13 13 13 13 13 13 13 13 13 13 13 13
18 18 18 18 18 18 18 18 17 17 17 17 17 16 16 16 16 15 15 15 15 15 15 14 14 14 14 14 14 14 13 13 13 13 13 13 13 13 13 13 13 13 12
18 18 18 18 18 18 18 18 17 17 17 17 17 16 16 16 16 15 15 15 15 15 14 14 14 14 14 14 14 14 13 13 13 13 13 13 13 13 13 13 12 12 12
18 18 18 18 18 18 18 18 18 17 17 17 17 17 16 16 16 16 15 15 15 15 14 14 14 14 14 14 14 13 13 13 13 13 13 13 13 13 13 13 12 12 12
19 18 18 18 18 18 18 18 18 17 17 17 17 17 16 16 16 16 15 15 15 15 14 14 14 14 14 14 14 14 13 13 13 13 13 13 13 13 13 13 12 12 12
19 19 19 18 18 18 18 18 18 17 17 17 17 17 16 16 16 15 15 15 15 15 15 14 14 14 14 14 14 13 13 13 13 13 12 12 13 13 12 12 12 12 12
19 19 19 19 18 18 18 18 17 17 17 17 17 17 16 16 16 15 15 15 15 15 15 14 14 14 14 14 14 13 13 13 13 13 12 12 12 12 12 12 12 11 11
19 19 19 19 18 18 18 18 17 17 17 17 17 16 16 16 16 16 15 15 15 15 14 14 14 14 14 14 13 13 13 13 12 12 12 12 12 12 12 12 11 11 11
19 19 19 18 18 18 18 17 17 17 17 17 16 16 16 16 16 15 15 15 15 14 14 14 14 14 13 13 13 13 12 12 12 12 12 12 12 12 12 11 11 10 11
19 19 19 18 18 18 18 17 17 17 16 16 16 16 16 16 15 15 15 15 14 14 14 14 14 13 13 13 13 13 12 12 12 11 11 11 11 11 11 11 11 10 10
19 19 18 18 18 18 17 17 17 17 16 16 16 16 16 16 15 15 15 15 14 14 14 13 13 13 13 13 13 12 12 12 11 11 11 11 11 11 11 11 11 10 10
19 19 18 18 18 18 17 17 17 17 16 16 16 16 15 15 15 15 14 14 14 14 13 13 13 13 13 13 12 12 12 12 11 11 11 11 11 11 10 10 10 10 9
19 18 18 18 17 17 17 17 16 16 16 16 16 15 15 15 15 14 14 14 14 13 13 13 12 12 12 12 12 12 12 11 11 11 10 10 10 10 10 10 9 9 9
18 18 18 17 17 17 16 16 16 16 16 15 15 15 15 14 14 14 14 14 13 13 13 13 12 12 12 12 12 11 11 11 11 10 10 10 9 9 9 9 9 9 8
18 17 17 17 17 16 16 16 16 15 15 15 15 15 14 14 14 14 13 13 13 13 13 12 12 12 11 11 11 11 11 11 10 10 9 9 9 9 9 8 8 8 8
Wind_Speed
8 8 8 7 7 7 6 6 6 5 5 4 3 3 3 3 4 5 6 6 6 6 6 4 4 3 3 3 3 4 5 4 4 4 5 6 7 7 6 6 6 8 9
10 9 9 8 8 7 7 6 6 5 4 3 3 2 3 3 4 4 5 5 5 6 5 5 4 3 3 3 3 2 3 3 1 1 2 3 4 5 6 5 5 6 7
11 11 10 9 8 8 7 6 6 6 5 4 3 3 3 2 3 3 3 4 5 5 5 5 4 4 3 3 2 2 2 2 2 2 1 0 2 3 4 5 5 6 6
11 11 11 10 9 8 7 7 6 6 5 5 4 3 2 2 2 2 3 3 4 5 5 5 5 4 4 3 3 2 1 1 2 2 2 3 2 1 3 3 4 6 6
13 13 12 11 10 9 8 7 7 6 5 5 4 3 2 2 2 2 3 3 4 4 4 4 4 4 4 4 4 3 3 2 2 1 2 2 2 0 1 2 3 4 5
14 13 11 10 10 9 8 7 7 6 5 5 5 4 3 3 3 2 2 2 2 3 4 3 3 4 4 4 4 4 4 3 3 2 2 1 1 1 1 2 3 3 3
15 14 13 12 11 10 9 8 8 7 6 6 5 5 4 4 3 3 2 2 2 2 3 3 3 3 4 4 4 4 4 4 4 3 3 3 2 1 1 1 2 2 2
14 14 14 13 12 11 10 9 9 8 7 7 6 5 5 4 3 3 2 2 1 2 2 3 3 4 4 4 4 3 4 3 4 4 4 3 3 2 2 1 1 2 2
15 14 13 13 12 12 11 10 9 8 8 7 6 5 5 5 4 4 3 2 2 2 2 3 3 4 4 3 3 3 4 3 3 4 4 3 3 2 2 1 1 1 1
15 14 13 12 11 11 10 10 9 8 8 7 6 5 5 5 4 4 4 3 3 3 3 3 3 4 4 4 3 3 3 4 4 2 3 3 3 2 2 2 1 2 1
14 14 13 12 11 10 10 9 9 8 7 7 6 6 5 5 5 4 4 4 3 4 3 3 3 3 3 4 3 3 3 3 4 3 3 3 2 2 2 1 2 1 1
12 12 12 12 11 11 10 10 9 8 8 7 7 7 6 6 5 5 5 5 4 4 4 4 3 3 3 3 3 3 2 2 2 2 2 2 2 1 1 1 1 1 2
11 11 11 11 11 11 10 10 9 9 8 7 7 7 7 6 6 6 5 5 5 5 4 4 4 4 4 3 3 3 3 2 2 1 1 1 1 1 1 0 0 1 1
11 11 11 11 11 11 10 10 9 8 8 8 7 7 7 6 6 6 5 5 5 5 5 4 4 4 4 4 4 3 3 3 2 2 1 1 1 1 1 0 1 1 1
11 12 12 11 11 10 10 10 9 9 8 8 8 7 7 6 6 6 6 5 5 5 4 4 4 4 4 3 3 4 4 4 3 3 2 2 0 2 2 2 1 1 2
11 12 12 12 12 12 11 10 9 9 9 9 8 7 6 6 6 6 6 5 5 5 4 4 5 5 4 3 3 4 4 4 4 3 3 3 3 3 3 1 2 3 3
11 11 12 12 12 12 11 11 10 10 10 9 8 7 7 7 7 6 6 6 6 5 5 5 5 5 4 5 6 6 5 4 4 4 4 3 2 3 4 4 6 4 4
10 10 10 10 10 11 10 10 10 10 10 9 8 8 7 7 7 7 7 6 6 5 5 5 5 5 4 5 6 6 6 5 5 4 4 4 4 3 3 4 4 4 4
9 8 9 9 10 10 10 10 10 10 9 9 9 8 8 8 8 7 7 7 6 6 6 6 6 6 5 6 6 7 5 5 5 5 4 4 4 2 3 5 5 5 4
7 7 8 8 9 9 10 10 10 10 10 9 9 9 8 8 8 8 7 6 6 6 6 6 6 6 6 6 7 8 5 5 5 4 4 3 4 3 4 6 6 6 6
7 7 8 8 8 9 10 10 9 9 9 8 8 8 8 8 8 7 6 6 6 6 6 6 6 6 6 6 7 8 6 5 5 5 4 4 5 5 6 8 7 7 7
7 8 7 7 7 8 9 9 9 8 7 7 7 7 7 6 6 7 6 6 6 6 6 6 5 5 5 5 6 8 8 6 6 5 5 3 4 6 7 7 6 7 7
7 6 7 7 7 7 8 8 7 7 7 7 7 7 7 6 6 7 7 6 6 6 5 5 5 5 4 5 6 7 8 8 6 5 3 3 5 6 7 7 8 8 7
6 6 7 7 6 6 6 6 6 7 7 7 7 6 6 6 6 5 5 5 5 5 5 5 5 5 4 4 4 5 5 6 7 6 5 6 7 7 7 7 7 7 7
6 6 6 6 6 6 6 5 6 7 7 7 6 6 6 6 6 5 4 5 5 4 5 5 5 5 5 4 3 4 4 4 5 5 5 6 6 6 6 6 7 6 7
6 6 6 6 6 6 5 5 5 6 6 6 6 5 5 5 5 5 4 2 2 2 3 3 4 4 2 1 4 5 5 4 4 5 6 7 7 7 7 7 7 7 7
Wind_Direction
177 175 173 169 166 166 162 154 152 142 137 124 117 107 91 76 67 55 46 44 46 44 48 49 55 51 72 80 103 115 119 113 117 119 106 89 69 66 61 55 61 63 56
183 181 182 177 179 174 173 168 166 161 155 138 123 107 99 83 73 66 54 44 48 44 44 51 60 63 76 83 95 122 126 117 127 152 154 134 108 70 61 60 56 59 59
191 186 187 184 185 184 180 177 175 169 168 156 135 127 118 122 106 86 64 48 47 47 45 50 56 55 65 79 84 115 142 136 98 26 339 160 92 110 79 64 65 61 58
196 191 191 191 189 186 181 180 178 176 172 169 167 160 155 123 91 84 88 82 65 58 50 56 58 62 62 71 73 79 99 128 128 92 35 36 68 150 127 101 75 64 59
198 196 195 194 189 182 181 182 177 179 180 185 180 188 166 124 119 115 108 94 77 67 63 58 61 65 68 70 67 64 62 73 66 82 91 88 91 60 127 129 114 88 65
200 199 194 190 188 182 180 183 183 184 183 190 193 196 177 164 154 150 131 118 103 85 75 71 74 72 73 74 72 73 71 61 64 63 65 69 91 109 127 131 129 107 85
197 195 192 192 190 187 186 186 188 188 187 193 200 199 193 190 183 173 153 147 119 102 89 90 86 81 81 80 79 80 73 74 72 66 66 60 60 45 78 130 132 118 107
195 194 193 193 193 191 190 190 193 193 190 197 202 202 194 199 190 189 179 168 134 112 109 108 104 100 98 100 93 87 83 80 84 77 74 75 69 54 45 58 146 140 119
192 192 192 192 192 192 193 193 195 196 194 199 203 204 201 199 192 192 190 177 166 150 147 137 127 121 116 111 109 97 97 91 88 90 90 82 83 66 54 49 352 316 133
189 189 189 189 189 189 191 193 198 198 194 196 199 200 203 199 194 193 191 189 183 171 171 164 149 138 131 124 115 108 100 106 98 89 90 86 87 77 69 52 40 3 338
187 187 186 187 185 184 186 190 193 194 192 193 191 190 192 192 193 196 191 191 185 180 180 177 170 156 149 142 135 127 120 118 113 112 106 99 79 79 72 59 50 36 21
185 185 182 181 182 184 187 191 193 193 192 191 188 189 184 187 193 193 193 191 188 189 190 183 183 170 163 160 155 152 139 131 120 119 121 113 107 84 48 32 48 33 352
180 181 181 182 184 187 189 192 193 193 189 187 188 187 188 192 196 195 190 193 194 193 194 195 192 185 181 176 176 175 170 167 161 168 165 152 142 139 100 14 22 11 341
178 180 183 186 187 189 191 193 194 191 187 186 190 193 195 197 198 193 190 192 194 196 198 197 195 193 191 191 189 194 198 199 199 203 212 225 237 265 262 253 292 288 284
180 184 187 188 188 190 192 192 192 191 188 189 193 198 197 194 192 185 190 190 192 200 197 194 195 194 201 206 208 204 211 212 207 206 214 214 14 9 335 312 302 283 272
186 187 189 190 191 192 192 191 191 192 191 192 194 193 194 189 190 190 189 187 189 196 192 196 198 201 206 169 211 237 221 216 216 220 219 202 200 190 199 252 309 311 283
186 188 190 191 193 194 192 190 193 191 192 194 192 189 189 188 192 190 188 189 189 188 193 199 202 209 196 176 202 227 235 230 233 233 225 222 217 218 223 208 216 232 252
185 187 188 188 191 190 188 190 190 191 194 195 192 190 191 190 190 191 193 198 198 193 197 202 206 212 203 185 203 216 228 235 237 237 237 234 233 233 243 240 246 252 247
184 183 182 180 182 182 182 183 185 189 193 195 196 193 194 192 192 195 199 200 200 200 202 205 209 213 209 188 202 216 224 232 234 233 238 241 239 207 243 246 251 255 255
172 171 170 171 173 177 181 183 186 190 196 198 200 196 194 194 197 201 203 199 200 206 207 209 216 219 223 184 198 221 225 233 234 230 229 227 237 217 237 245 252 257 262
158 161 164 167 172 174 179 186 190 197 199 197 196 194 194 196 198 200 201 200 200 205 211 212 217 221 224 192 193 218 229 234 238 236 235 228 200 220 236 253 257 266 276
150 157 160 162 167 174 181 189 196 197 188 185 188 191 191 191 192 194 199 201 200 203 209 214 218 221 218 218 202 210 228 254 245 246 245 235 201 225 239 246 257 267 269
147 154 156 154 159 170 182 190 189 182 178 181 186 188 188 188 190 191 192 196 202 209 214 217 222 223 219 209 202 209 219 235 244 250 252 243 223 232 239 237 246 251 256
146 153 155 155 157 167 181 187 176 176 179 183 186 186 187 186 188 190 195 198 203 210 215 218 224 228 225 226 217 217 220 221 235 245 236 229 236 240 251 250 246 249 254
147 155 159 158 157 160 167 172 174 179 185 187 185 187 187 187 189 191 198 207 209 215 220 223 227 231 232 232 237 232 228 233 237 243 245 248 248 250 251 254 256 254 253
150 153 153 156 158 157 159 161 170 183 189 187 186 185 184 185 187 189 189 173 219 194 221 264 261 239 245 218 209 228 244 246 235 243 248 251 253 256 259 260 260 257 258
Height
1562 1564 1565 1566 1568 1569 1571 1571 1572 1572 1573 1573 1573 1573 1573 1573 1572 1571 1570 1569 1568 1568 1567 1566 1565 1565 1564 1564 1565 1565 1565 1565 1566 1566 1566 1566 1565 1565 1564 1564 1564 1563 1563
1561 1563 1565 1566 1568 1569 1570 1572 1572 1573 1573 1573 1574 1574 1573 1573 1572 1572 1571 1570 1570 1569 1568 1567 1566 1566 1565 1565 1565 1565 1566 1566 1566 1567 1567 1568 1569 1566 1566 1565 1565 1565 1564
1559 1562 1564 1565 1567 1568 1570 1571 1572 1573 1573 1574 1574 1574 1574 1574 1574 1573 1572 1571 1571 1570 1569 1568 1567 1567 1567 1566 1566 1566 1566 1566 1567 1567 1568 1568 1568 1568 1568 1567 1566 1566 1565
1557 1560 1562 1564 1566 1568 1569 1571 1572 1573 1573 1574 1574 1575 1575 1575 1574 1574 1573 1572 1571 1571 1570 1569 1568 1568 1567 1567 1567 1566 1566 1567 1567 1567 1567 1568 1568 1569 1569 1569 1568 1567 1566
1555 1557 1560 1562 1565 1567 1568 1570 1571 1572 1573 1574 1574 1574 1575 1575 1575 1574 1574 1573 1572 1571 1571 1570 1569 1569 1568 1568 1567 1567 1567 1567 1568 1568 1568 1567 1568 1569 1569 1569 1569 1568 1567
1552 1555 1558 1560 1563 1565 1567 1568 1570 1571 1572 1573 1574 1574 1575 1575 1575 1575 1574 1574 1573 1572 1571 1571 1570 1570 1569 1568 1568 1568 1567 1567 1567 1567 1568 1568 1568 1569 1569 1569 1569 1569 1568
1549 1552 1555 1558 1560 1563 1565 1567 1569 1570 1571 1572 1573 1574 1574 1575 1575 1575 1574 1574 1574 1573 1572 1572 1571 1570 1570 1569 1569 1568 1568 1568 1568 1568 1568 1568 1568 1569 1569 1570 1570 1569 1569
1545 1549 1552 1555 1558 1560 1563 1565 1567 1569 1570 1572 1573 1574 1574 1574 1574 1574 1574 1574 1574 1573 1572 1572 1571 1571 1570 1570 1569 1569 1569 1569 1568 1568 1568 1568 1568 1568 1569 1569 1570 1570 1570
1541 1545 1549 1552 1555 1558 1560 1563 1565 1567 1569 1570 1572 1572 1573 1573 1573 1573 1574 1574 1573 1573 1572 1572 1572 1571 1571 1570 1570 1570 1570 1569 1569 1569 1569 1569 1569 1569 1569 1569 1569 1571 1570
1539 1542 1546 1549 1552 1555 1558 1561 1563 1565 1567 1568 1570 1571 1571 1572 1572 1573 1573 1573 1573 1572 1572 1572 1572 1571 1571 1571 1571 1571 1570 1570 1570 1569 1570 1570 1570 1570 1569 1569 1569 1569 1570
1535 1539 1543 1546 1550 1553 1556 1558 1561 1563 1565 1566 1568 1569 1570 1570 1571 1571 1571 1571 1571 1571 1571 1572 1572 1571 1571 1571 1571 1571 1571 1571 1571 1571 1570 1570 1570 1570 1570 1570 1569 1569 1569
1533 1537 1541 1544 1548 1551 1554 1556 1559 1561 1563 1564 1566 1567 1568 1569 1569 1569 1570 1570 1570 1570 1571 1571 1571 1571 1571 1571 1571 1571 1571 1571 1571 1571 1571 1571 1570 1570 1570 1570 1569 1569 1568
1531 1535 1538 1542 1545 1548 1551 1554 1556 1559 1560 1562 1564 1565 1566 1567 1567 1568 1568 1568 1569 1569 1570 1570 1570 1570 1570 1570 1570 1571 1571 1571 1571 1571 1571 1571 1571 1570 1570 1569 1569 1568 1568
1530 1533 1536 1539 1542 1546 1549 1552 1554 1556 1558 1560 1561 1563 1564 1565 1565 1566 1566 1567 1567 1568 1568 1569 1569 1569 1569 1569 1570 1570 1570 1570 1570 1570 1570 1570 1570 1570 1569 1569 1568 1568 1567
1528 1531 1534 1537 1540 1543 1546 1549 1551 1553 1555 1557 1559 1560 1562 1562 1563 1564 1564 1565 1565 1566 1566 1567 1567 1567 1567 1568 1568 1569 1569 1569 1569 1569 1569 1568 1568 1568 1568 1567 1567 1566 1566
1526 1528 1531 1534 1537 1540 1543 1546 1548 1551 1553 1554 1556 1557 1559 1560 1560 1561 1562 1563 1563 1564 1564 1565 1565 1565 1566 1566 1567 1567 1567 1568 1568 1568 1567 1567 1566 1566 1565 1565 1565 1564 1564
1523 1526 1528 1531 1534 1537 1540 1543 1545 1548 1550 1552 1553 1555 1556 1557 1558 1559 1560 1561 1561 1562 1562 1563 1563 1564 1564 1564 1565 1565 1566 1566 1566 1566 1566 1565 1564 1564 1564 1563 1562 1562 1561
1521 1523 1526 1529 1531 1535 1537 1540 1543 1545 1547 1549 1550 1552 1553 1554 1555 1556 1557 1558 1559 1560 1560 1561 1561 1562 1562 1562 1563 1563 1563 1564 1564 1563 1563 1563 1562 1562 1561 1561 1560 1559 1558
1519 1521 1524 1526 1529 1532 1535 1537 1540 1542 1544 1546 1547 1549 1550 1552 1553 1553 1555 1556 1557 1557 1558 1559 1559 1559 1560 1560 1560 1561 1561 1561 1560 1560 1560 1560 1559 1559 1558 1558 1557 1556 1555
1517 1520 1522 1525 1527 1530 1532 1535 1537 1539 1541 1542 1544 1546 1547 1549 1550 1551 1552 1553 1554 1555 1555 1556 1556 1557 1557 1557 1558 1558 1558 1558 1558 1557 1557 1556 1556 1556 1555 1554 1554 1553 1552
1515 1518 1520 1522 1525 1527 1530 1532 1534 1536 1538 1540 1542 1543 1544 1546 1547 1548 1549 1550 1551 1552 1552 1553 1553 1554 1554 1554 1554 1555 1555 1555 1554 1554 1553 1553 1553 1552 1551 1551 1550 1549 1548
1514 1516 1518 1521 1523 1525 1527 1530 1531 1534 1535 1537 1539 1540 1542 1543 1544 1545 1546 1547 1548 1548 1549 1549 1550 1550 1551 1551 1551 1551 1551 1551 1551 1550 1550 1549 1549 1548 1547 1546 1545 1544 1543
1513 1515 1517 1519 1521 1523 1525 1527 1529 1531 1532 1534 1536 1537 1539 1540 1541 1542 1543 1544 1544 1545 1545 1546 1546 1546 1547 1547 1547 1547 1547 1547 1547 1546 1546 1545 1544 1544 1543 1542 1541 1540 1539
1512 1513 1515 1517 1519 1521 1523 1525 1527 1528 1530 1532 1533 1534 1536 1537 1538 1538 1539 1540 1541 1541 1542 1542 1542 1543 1543 1543 1543 1543 1543 1543 1542 1542 1541 1541 1540 1539 1538 1537 1536 1534 1533
1511 1512 1514 1516 1517 1519 1521 1522 1524 1526 1527 1529 1530 1532 1533 1533 1534 1535 1536 1536 1537 1538 1538 1539 1539 1539 1539 1539 1539 1539 1539 1539 1538 1537 1536 1536 1535 1534 1533 1532 1530 1529 1528
1510 1511 1513 1514 1516 1518 1519 1520 1522 1523 1525 1526 1527 1528 1529 1530 1531 1532 1533 1533 1534 1534 1535 1535 1535 1535 1536 1535 1535 1535 1535 1534 1534 1533 1532 1531 1530 1529 1528 1526 1525 1524 1522